This is the latest recevied weather packets stored in our database for station/object N5PA. If no packets are shown the sender has not sent any weather packets the latest 10 day(s).
| Time | Temp. | Humidity | Pressure | Rain* | Wind** | Luminosity | Snow |
|---|---|---|---|---|---|---|---|
| 1778183108 | 21.11° C | 73% | 1014.9 hPa | 0 mm | - | 1056 W/m² | - |
| 1778182808 | 21.11° C | 72% | 1014.8 hPa | 0 mm | - | 1055 W/m² | - |
| 1778182509 | 21.11° C | 72% | 1015 hPa | 0 mm | - | 1055 W/m² | - |
| 1778182208 | 21.67° C | 72% | 1015 hPa | 0 mm | - | 1049 W/m² | - |
| 1778181908 | 21.67° C | 72% | 1014.8 hPa | 0 mm | - | 1049 W/m² | - |
| 1778181608 | 21.67° C | 71% | 1014.7 hPa | 0 mm | - | 1048 W/m² | - |
| 1778181308 | 21.67° C | 73% | 1014.6 hPa | 0 mm | - | 1049 W/m² | - |
| 1778181008 | 21.67° C | 72% | 1014.6 hPa | 0 mm | - | 1049 W/m² | - |
| 1778180707 | 21.67° C | 71% | 1014.8 hPa | 0 mm | - | 1049 W/m² | - |
| 1778180409 | 21.67° C | 72% | 1014.8 hPa | 0 mm | - | 1049 W/m² | - |
| 1778180108 | 21.67° C | 74% | 1014.8 hPa | 0 mm | - | 1049 W/m² | - |
| 1778179809 | 21.11° C | 73% | 1014.9 hPa | 0 mm | - | 1049 W/m² | - |
| 1778179508 | 21.11° C | 73% | 1014.8 hPa | 0 mm | - | 1049 W/m² | - |
| 1778179209 | 21.11° C | 73% | 1014.9 hPa | 0 mm | - | 1048 W/m² | - |
| 1778178907 | 21.11° C | 74% | 1015 hPa | 0 mm | - | 1049 W/m² | - |
| 1778178608 | 21.11° C | 73% | 1015.1 hPa | 0 mm | - | 1049 W/m² | - |
| 1778178308 | 21.11° C | 73% | 1015.1 hPa | 0 mm | - | 1049 W/m² | - |
| 1778178008 | 21.11° C | 73% | 1014.9 hPa | 0 mm | - | 1048 W/m² | - |
| 1778177708 | 21.11° C | 74% | 1015 hPa | 0 mm | - | 1048 W/m² | - |
| 1778177408 | 21.11° C | 74% | 1015 hPa | 0 mm | - | 1048 W/m² | - |
| 1778177108 | 21.11° C | 73% | 1015.2 hPa | 0 mm | - | 1046 W/m² | - |
| 1778176808 | 21.11° C | 73% | 1015.2 hPa | 0 mm | - | 1044 W/m² | - |
| 1778176508 | 21.11° C | 73% | 1015 hPa | 0 mm | - | 1042 W/m² | - |
| 1778176209 | 21.11° C | 74% | 1015.1 hPa | 0 mm | - | 1044 W/m² | - |
| 1778175908 | 21.11° C | 73% | 1015.2 hPa | 0 mm | - | 1041 W/m² | - |
* Rain latest hour (hover to see other rain measurements)
** Current wind speed in m/s (hover to see current wind gust speed)